User: anonymous   Login
Location: Unspecified
(0.0000°N, 0.0000°E)
Time: 08:36:35
(UTC+00:00)
Language:

Geosat FO - Orbit

View from above orbital plane
View from above orbital plane
View from above satellite
View from above satellite

Ground track
Ground track

The orbit data is extracted from the following two-line orbital elements,

1 25157U 98007A   17032.76548754 0.00008000  00000-0  49729-3 0    08
2 25157 107.8611  94.9858 0071501 185.4429 174.5571 15.07401920    05
Epoch (UTC): 01 February 2017 18:22:18
Eccentricity: 0.0071501
inclination: 107.8611°
perigee height: 494 km
apogee height: 593 km
right ascension of ascending node: 94.9858°
argument of perigee: 185.4429°
revolutions per day: 15.07401920
mean anomaly at epoch: 174.5571°
orbit number at epoch: 0

The dashed part of the orbit path shows where the satellite is in the earth's shadow,  

DLR